fecha-hora | temperatura | viento dirección-velocidad-rachas | humedad | presión

  • 11-04-2019 21:00:00 | 11.50°C | Calma-0.00 km/h - 9.00 km/h | 78.00% | 0.00 hPa
  • 11-04-2019 20:00:00 | 11.80°C | Norte-3.00 km/h - 12.00 km/h | 76.00% | 0.00 hPa
  • 11-04-2019 19:00:00 | 12.20°C | Nordeste-4.00 km/h - 15.00 km/h | 74.00% | 0.00 hPa
  • 11-04-2019 18:00:00 | 12.30°C | Este-5.00 km/h - 17.00 km/h | 75.00% | 0.00 hPa
  • 11-04-2019 17:00:00 | 12.50°C | Oeste-2.00 km/h - 10.00 km/h | 76.00% | 0.00 hPa
  • 11-04-2019 16:00:00 | 12.20°C | Norte-6.00 km/h - 22.00 km/h | 81.00% | 0.00 hPa
  • 11-04-2019 15:00:00 | 13.50°C | Nordeste-6.00 km/h - 15.00 km/h | 68.00% | 0.00 hPa
  • 11-04-2019 14:00:00 | 13.20°C | Nordeste-8.00 km/h - 14.00 km/h | 68.00% | 0.00 hPa
  • 11-04-2019 13:00:00 | 12.30°C | Norte-6.00 km/h - 12.00 km/h | 70.00% | 0.00 hPa
  • 11-04-2019 12:00:00 | 10.40°C | Calma-0.00 km/h - 8.00 km/h | 83.00% | 0.00 hPa
  • 11-04-2019 11:00:00 | 8.20°C | Nordeste-2.00 km/h - 6.00 km/h | 89.00% | 0.00 hPa
  • 11-04-2019 10:00:00 | 7.20°C | Nordeste-3.00 km/h - 7.00 km/h | 93.00% | 0.00 hPa
  • 11-04-2019 09:00:00 | 6.50°C | Calma-0.00 km/h - 5.00 km/h | 99.00% | 0.00 hPa
  • 11-04-2019 08:00:00 | 6.30°C | Este-3.00 km/h - 6.00 km/h | 98.00% | 0.00 hPa
  • 11-04-2019 07:00:00 | 0.00°C | 0-0.00 km/h - 0.00 km/h | 0.00% | 0.00 hPa
  • 11-04-2019 06:00:00 | 7.00°C | Este-2.00 km/h - 3.00 km/h | 99.00% | 0.00 hPa
  • 11-04-2019 05:00:00 | 7.10°C | Este-2.00 km/h - 4.00 km/h | 99.00% | 0.00 hPa
  • 11-04-2019 04:00:00 | 7.50°C | Este-2.00 km/h - 4.00 km/h | 98.00% | 0.00 hPa
  • 11-04-2019 03:00:00 | 7.90°C | Calma-0.00 km/h - 3.00 km/h | 97.00% | 0.00 hPa
  • 11-04-2019 02:00:00 | 8.50°C | Calma-0.00 km/h - 3.00 km/h | 97.00% | 0.00 hPa
  • 11-04-2019 01:00:00 | 8.90°C | Nordeste-2.00 km/h - 5.00 km/h | 96.00% | 0.00 hPa
  • 11-04-2019 00:00:00 | 9.70°C | Calma-0.00 km/h - 8.00 km/h | 94.00% | 0.00 hPa
  • 10-04-2019 23:00:00 | 10.20°C | Nordeste-3.00 km/h - 13.00 km/h | 89.00% | 0.00 hPa
  • 10-04-2019 22:00:00 | 11.00°C | Oeste-4.00 km/h - 12.00 km/h | 80.00% | 0.00 hPa
    • diseño web asturias Información sobre el estado de las mareas, altura de la marejada, temperatura del agua y otros datos de Gijón en Asturias.

      Surf Gijón